Location: Black Swamp Observatory
(41.3920°N, 84.1250°W)
Time: 05:59:30
(UTC-05:00)

Vanguard 1 - All Passes

Search period start: 19 January 2022 00:00
Search period end: 29 January 2022 00:00
Orbit: 652 x 3830 km, 34.2° (Epoch: 18 January)

Date Brightness Start Highest point End Pass type
(mag) Time Alt. Az. Time Alt. Az. Time Alt. Az.
19 Jan - 12:06:42 10° SW 12:11:17 23° SSE 12:14:58 10° ESE daylight
19 Jan - 14:26:37 10° WSW 14:30:48 35° S 14:35:03 10° ESE daylight
19 Jan - 16:46:34 10° WSW 16:50:20 24° SSW 16:55:11 10° SE daylight
20 Jan - 10:08:33 10° S 10:11:58 13° SSE 10:14:48 10° SE daylight
20 Jan - 12:27:09 10° SW 12:32:04 29° S 12:35:58 10° ESE daylight
20 Jan - 14:47:26 10° WSW 14:51:31 34° S 14:55:49 10° ESE daylight
20 Jan - 17:07:47 10° WSW 17:11:08 18° SSW 17:15:17 10° SSE daylight
21 Jan - 10:27:44 10° SSW 10:32:52 19° SSE 10:36:43 10° ESE daylight
21 Jan - 12:47:47 10° WSW 12:52:49 33° S 12:56:51 10° ESE daylight
21 Jan - 15:08:20 10° WSW 15:12:15 30° S 15:16:29 10° SE daylight
21 Jan - 17:29:32 10° SW 17:31:57 13° SSW 17:34:44 10° S daylight
22 Jan - 10:47:42 10° SW 10:53:45 24° SSE 10:58:02 10° ESE daylight
22 Jan - 13:08:35 10° WSW 13:13:34 36° S 13:17:39 10° ESE daylight
22 Jan - 15:29:19 10° WSW 15:32:58 25° SSW 15:36:58 10° SE daylight
23 Jan - 08:48:59 10° S 08:53:53 14° SSE 08:57:44 10° SE daylight
23 Jan - 11:08:04 10° SW 11:14:36 30° SSE 11:19:04 10° ESE daylight
23 Jan - 13:29:27 10° WSW 13:34:19 36° S 13:38:23 10° ESE daylight
23 Jan - 15:50:29 10° WSW 15:53:41 19° SSW 15:57:12 10° SSE daylight
24 Jan - 09:07:55 10° SSW 09:14:52 20° SSE 09:19:47 10° ESE daylight
24 Jan - 11:28:43 10° SW 11:35:25 35° S 11:39:57 10° ESE daylight
24 Jan - 13:50:24 10° WSW 13:55:02 34° S 13:59:03 10° ESE daylight
24 Jan - 16:12:02 10° SW 16:14:23 14° SSW 16:16:56 10° S daylight
25 Jan - 09:27:43 10° SSW 09:35:50 26° SSE 09:41:12 10° ESE daylight
25 Jan - 11:49:33 10° WSW 11:56:13 39° S 12:00:45 10° ESE daylight
25 Jan - 14:11:25 10° WSW 14:15:44 29° SSW 14:19:36 10° SE daylight
26 Jan - 07:28:48 10° S 07:35:20 15° SSE 07:40:21 10° ESE visible
26 Jan - 09:47:58 10° SW 09:56:46 32° SSE 10:02:18 10° ESE daylight
26 Jan - 12:10:30 10° WSW 12:17:00 41° S 12:21:29 10° ESE daylight
26 Jan - 14:32:32 10° WSW 14:36:23 23° SSW 14:39:58 10° SE daylight
27 Jan - 07:47:21 10° SSW 07:56:24 21° SSE 08:02:38 10° ESE daylight
27 Jan - 10:08:34 10° SW 10:17:41 38° S 10:23:12 10° ESE daylight
27 Jan - 12:31:31 10° WSW 12:37:45 41° S 12:42:09 10° ESE daylight
27 Jan - 14:53:52 10° WSW 14:57:01 18° SSW 15:00:01 10° SSE daylight
28 Jan - 08:06:51 10° SSW 08:17:26 27° SSE 08:24:12 10° ESE daylight
28 Jan - 10:29:24 10° WSW 10:38:34 43° S 10:44:02 10° ESE daylight
28 Jan - 12:52:36 10° WSW 12:58:29 37° SSW 13:02:45 10° SE daylight
28 Jan - 15:15:47 10° SW 15:17:35 12° SSW 15:19:21 10° S daylight
